Theta_e
323 322 322 321 322 322 322 321 322 321 320 319 320 319 318 318 318 318 316 315 315 312 309 310 310 309 308 308 308 308 308 307 305 304 303 301 302 307 313 316 316 317 320 322 324 324 324 324 325 325 325 325 325 325 324 323 322 322 322 323 324 325 326 326 327 328 328 328 328 328 328 329 328 325 324 324 323 323 322 322 321 321 322 322 322
320 320 319 319 319 319 319 319 319 319 319 317 317 318 317 317 317 316 315 314 314 314 313 312 310 310 308 309 307 309 309 307 305 303 301 301 300 302 309 311 313 315 317 319 319 319 320 320 322 323 324 325 325 324 324 324 324 323 323 322 322 323 323 323 323 324 324 325 325 326 327 328 328 327 326 325 324 323 323 322 321 321 321 321 321
318 318 317 317 317 317 317 318 317 317 317 316 316 316 315 314 314 314 313 312 311 312 312 311 310 310 310 311 308 310 309 307 304 302 300 299 299 300 302 307 310 311 314 315 313 313 314 315 317 319 321 322 323 324 324 324 323 322 323 323 323 323 323 322 321 322 322 323 324 325 324 325 326 327 327 326 325 325 324 323 322 321 321 321 321
316 315 314 313 312 312 313 313 313 314 313 312 311 311 310 309 308 308 308 308 308 308 309 309 308 309 310 310 311 310 307 305 303 302 301 300 300 299 299 300 305 307 309 312 312 312 312 312 312 314 317 319 321 322 323 322 322 322 322 322 322 322 322 322 321 321 321 321 321 321 321 322 323 324 325 326 326 325 325 324 323 322 322 322 322
313 312 311 311 311 310 310 310 310 310 309 307 306 305 305 304 303 303 303 302 302 303 306 306 306 307 308 309 308 307 306 304 302 301 300 299 298 298 298 298 297 302 304 307 308 309 310 310 310 310 313 315 317 319 320 319 320 321 322 323 322 322 322 322 321 321 321 321 321 320 320 320 321 321 322 324 326 326 325 325 324 323 322 322 322
310 310 310 309 309 308 308 308 308 307 305 303 302 301 300 300 300 299 299 299 298 299 301 302 304 306 306 307 306 305 304 303 302 300 298 296 295 295 296 296 295 295 295 301 303 305 307 308 308 307 309 312 313 316 318 318 319 321 321 321 321 321 321 320 321 321 321 320 320 320 320 320 320 321 321 321 322 325 327 326 324 324 323 323 323
307 307 306 306 305 304 304 305 307 306 302 300 297 296 296 295 296 295 295 295 295 295 296 298 300 302 303 304 303 303 303 302 301 299 297 295 293 292 292 292 293 293 293 291 295 299 303 305 305 306 307 309 311 313 315 315 317 318 319 320 319 319 319 318 319 319 320 320 319 319 319 319 320 320 321 321 321 322 323 325 326 324 324 324 323
302 302 301 301 301 300 301 302 302 301 300 298 295 293 292 292 291 291 291 290 292 292 293 295 298 298 298 298 300 301 300 299 298 296 295 293 291 289 289 289 291 292 294 289 289 292 300 302 303 303 303 306 308 310 312 313 315 317 317 317 316 317 318 317 317 317 317 317 317 317 318 319 319 320 320 320 321 322 322 322 323 326 327 325 324
298 298 298 297 297 297 298 299 298 297 296 296 295 293 291 290 289 289 289 288 289 290 292 295 297 296 295 294 295 295 295 295 295 295 294 291 289 288 287 287 289 293 290 289 288 288 293 298 299 299 299 302 305 307 309 311 312 314 315 315 316 316 316 316 316 315 315 315 315 315 316 316 317 317 318 318 319 321 321 322 322 322 323 325 326
294 294 294 294 293 294 294 295 295 295 294 294 293 291 289 288 287 287 287 287 287 289 291 294 294 293 292 292 291 291 290 291 292 293 292 290 288 287 286 286 286 287 289 289 287 287 287 292 295 295 295 299 302 304 306 307 309 312 313 312 314 316 314 314 313 313 312 313 313 313 313 313 313 314 314 315 316 317 319 320 321 322 322 323 323
292 292 292 292 292 291 291 291 292 292 291 291 290 290 289 287 286 286 287 286 286 286 290 293 292 291 291 290 290 289 289 289 289 289 289 289 288 288 287 285 286 286 287 288 286 286 286 287 287 287 287 295 300 302 303 304 305 309 310 310 310 312 314 313 312 312 311 310 311 311 312 313 313 313 313 313 314 315 316 317 319 319 320 321 321
290 291 291 290 290 290 289 290 290 290 289 288 288 287 287 287 286 285 285 286 287 286 288 292 291 290 289 289 289 289 288 288 287 287 287 287 286 285 284 284 284 285 286 286 286 285 285 285 287 286 286 290 295 297 299 300 301 305 307 308 309 310 312 313 311 312 311 311 310 310 311 311 311 311 313 312 313 314 314 315 316 317 318 319 320
289 289 289 290 288 288 288 288 288 288 287 286 286 287 287 286 285 286 285 285 285 285 285 287 292 290 291 289 288 288 289 287 285 285 285 286 285 284 284 283 283 284 284 285 284 284 285 285 285 285 285 285 287 292 294 296 297 303 305 307 308 311 313 313 313 310 310 310 310 310 310 310 311 311 311 312 312 313 313 314 314 315 316 317 318
288 288 287 287 287 287 286 286 287 287 286 286 286 287 285 285 285 284 284 284 283 284 285 285 286 287 288 288 288 286 286 286 285 284 284 284 284 283 283 283 283 283 284 283 283 283 284 284 284 284 284 285 285 286 287 288 291 299 304 306 307 308 310 312 312 311 310 310 310 310 310 310 311 310 310 311 313 313 313 313 313 314 314 315 316
286 287 286 286 286 286 285 285 285 287 286 285 285 284 284 284 284 283 283 283 283 284 284 284 283 283 285 284 283 286 290 282 283 284 283 282 283 283 283 282 282 282 283 282 282 282 283 283 283 283 284 284 285 286 286 289 291 294 297 300 303 307 308 310 311 310 310 309 309 309 309 310 310 310 309 310 312 312 313 313 313 313 313 313 314
285 285 285 285 285 285 285 285 285 285 285 284 284 283 284 283 283 284 283 282 281 282 284 283 282 283 282 282 281 279 276 277 279 280 280 281 282 282 282 281 281 281 282 281 281 281 282 282 282 283 284 284 285 285 286 286 289 291 292 295 298 303 305 307 309 309 309 309 308 308 308 308 308 307 309 310 311 311 312 312 312 313 313 312 312
284 284 285 284 284 285 285 284 284 284 285 284 284 283 283 283 283 283 282 282 280 280 283 283 282 283 281 278 277 277 278 276 277 276 279 280 280 280 282 281 280 281 281 280 281 281 281 281 282 282 283 284 284 285 285 285 286 288 288 292 295 298 300 304 306 306 306 306 307 306 306 306 306 307 309 310 310 310 311 311 311 312 312 313 313
284 284 284 285 284 284 284 284 284 284 284 284 284 284 283 283 283 282 282 281 282 281 280 283 282 283 282 280 279 276 276 277 275 275 276 278 278 280 279 280 279 280 280 280 280 280 282 281 281 281 282 283 284 284 283 284 285 285 288 290 296 297 297 299 303 304 305 305 305 305 306 306 306 307 308 308 308 308 309 309 310 310 311 311 312
284 284 284 284 284 284 284 284 284 284 284 284 283 283 283 283 283 283 282 284 281 280 279 280 280 281 281 281 281 279 277 274 275 275 272 274 277 278 277 279 278 278 279 279 279 279 280 281 280 281 281 282 283 283 282 282 285 287 291 293 296 297 297 297 298 300 302 302 303 303 304 306 306 306 306 306 307 307 307 308 309 309 310 310 311
284 283 284 284 284 284 284 284 284 283 284 283 282 282 283 283 283 282 282 281 281 280 278 278 278 279 280 279 280 279 278 278 276 275 276 274 274 276 276 278 278 277 278 278 278 278 278 279 280 280 280 281 282 281 281 281 281 283 285 292 295 296 297 296 296 295 297 298 301 302 304 305 306 306 305 305 306 306 307 308 308 309 309 310 310
283 283 283 284 284 284 283 283 283 283 283 282 282 282 281 281 281 282 281 281 281 280 279 278 278 278 277 278 277 276 276 277 276 276 275 273 273 274 274 276 276 275 277 277 277 278 279 278 280 280 281 281 281 280 281 281 281 282 286 290 292 294 295 294 294 294 294 294 297 299 303 304 304 305 305 305 305 306 306 306 307 308 308 308 309
282 282 283 283 283 283 282 282 282 282 282 281 281 281 281 280 280 280 280 280 280 280 279 278 278 277 277 277 277 276 276 276 276 274 274 275 274 273 274 273 273 275 277 277 278 278 277 278 278 278 279 279 280 279 280 280 281 281 284 288 289 290 291 291 292 293 293 293 294 296 299 301 302 303 304 304 305 305 305 305 306 306 307 307 308
282 282 282 282 282 282 282 282 282 282 282 280 280 280 280 280 280 280 279 279 279 279 280 279 278 278 277 277 277 277 277 276 274 275 274 273 273 273 273 274 274 274 274 277 279 277 277 277 276 278 278 278 279 279 279 279 281 282 285 286 287 287 289 290 291 292 293 294 294 295 296 296 297 299 301 302 303 304 304 305 305 305 305 306 307
281 281 281 281 281 281 281 281 281 280 280 280 280 280 279 279 279 279 279 279 279 279 278 277 277 277 277 277 277 277 277 276 277 276 275 275 275 273 273 274 273 274 276 276 276 275 277 276 277 277 278 278 278 279 279 279 279 283 283 284 285 287 289 290 291 291 292 293 293 294 294 294 295 295 297 299 301 303 304 304 304 304 305 305 305
280 280 280 280 281 280 280 280 280 280 280 279 279 279 279 279 279 278 278 278 278 278 278 277 277 277 276 276 276 277 277 276 277 276 276 275 275 273 273 275 273 273 273 274 275 276 276 276 278 277 277 277 278 278 278 278 278 281 283 282 283 284 285 286 288 290 291 291 292 292 292 293 293 294 296 298 299 301 302 302 302 303 303 304 304
280 280 280 280 280 280 280 279 279 279 279 279 279 278 278 278 278 278 278 277 277 277 277 277 276 276 276 276 276 276 276 277 276 277 276 275 274 274 273 273 273 273 274 273 274 275 274 275 276 277 276 276 277 277 277 277 277 281 282 280 279 282 283 285 288 290 290 290 290 291 291 290 292 292 294 296 297 297 299 300 301 301 302 302 303
280 280 280 280 279 279 279 279 279 279 279 279 280 279 278 278 278 278 278 277 277 277 276 277 277 276 276 276 276 276 276 276 275 276 276 276 275 274 274 272 272 273 271 273 272 274 273 274 275 276 276 277 276 276 277 277 278 281 281 277 276 279 282 285 289 290 289 289 289 290 289 289 290 292 292 293 294 295 297 298 299 300 300 300 299
280 280 279 280 279 279 279 278 278 278 278 278 278 278 277 277 277 277 278 279 277 276 276 276 276 275 275 275 276 275 276 275 275 275 275 276 276 275 275 273 272 269 272 270 272 272 274 274 274 275 275 276 276 276 278 277 276 281 279 276 275 276 280 284 287 288 288 288 289 289 288 288 289 290 290 291 291 292 293 294 294 294 294 294 294
280 280 280 279 279 278 278 278 278 278 278 278 278 277 277 277 276 276 276 276 277 276 276 276 275 275 275 275 275 275 274 275 274 275 275 274 275 274 274 273 274 272 268 269 271 271 272 274 273 274 275 275 275 276 275 275 277 278 276 275 275 274 278 283 285 286 286 288 288 287 288 288 288 289 289 290 290 290 291 292 292 292 293 293 294
281 281 279 279 278 279 278 277 277 277 277 277 277 276 276 275 275 275 275 275 276 276 276 275 275 275 275 274 275 275 274 274 274 274 274 274 273 274 273 274 274 271 272 270 270 272 272 274 273 273 275 274 275 275 275 275 278 277 276 275 274 274 280 281 282 283 285 287 287 287 288 288 288 288 288 289 289 290 291 291 291 291 292 293 294
280 279 279 278 278 277 277 277 277 277 276 276 276 276 275 275 275 275 274 274 275 274 274 275 275 274 273 273 273 274 274 273 273 273 274 274 274 274 273 274 274 273 272 271 267 271 272 271 273 274 273 273 274 274 275 274 276 277 275 274 274 278 279 278 279 281 283 284 284 286 287 288 288 288 288 288 289 289 290 290 290 290 291 291 292
279 279 278 278 278 277 277 276 276 276 276 275 275 275 275 274 274 274 274 273 273 273 273 274 275 274 273 272 273 273 273 273 273 273 273 273 274 274 273 274 273 273 273 272 270 270 273 273 272 273 273 273 274 273 273 274 275 277 274 274 275 278 275 274 278 280 281 282 284 286 286 287 288 287 287 287 288 288 289 289 290 290 290 290 291
279 278 278 277 277 277 276 276 276 275 275 275 275 274 274 274 274 273 272 273 273 273 273 273 273 273 272 272 272 272 273 272 273 273 273 272 272 274 273 273 273 272 272 271 269 269 271 273 273 272 273 273 272 273 272 273 273 273 275 274 274 274 274 274 274 277 280 281 283 284 285 286 287 287 287 287 287 287 288 288 289 289 289 290 290
278 278 278 277 277 276 276 275 275 276 275 275 274 274 274 274 274 274 273 272 272 272 272 272 272 273 272 271 272 272 272 272 271 271 272 271 272 271 272 272 271 271 272 271 270 269 268 271 271 272 272 273 271 273 272 272 272 273 273 273 274 274 274 274 274 275 279 281 283 284 285 286 286 287 287 286 287 288 288 288 288 288 288 289 289
278 278 277 277 276 276 276 276 276 276 275 274 273 273 273 273 273 273 272 272 272 272 272 272 271 271 271 271 271 271 272 271 271 271 271 271 271 271 270 271 270 271 271 271 270 268 268 269 271 270 271 271 271 271 272 273 273 273 272 273 273 274 275 275 275 275 279 281 283 284 285 285 285 286 286 286 286 286 287 287 287 287 287 287 288
277 277 277 276 276 276 276 276 275 274 273 273 273 273 272 272 272 272 272 271 271 271 271 271 271 271 270 270 270 270 270 270 270 270 270 270 271 271 270 271 271 270 271 271 271 270 268 267 269 270 271 271 271 272 273 273 273 273 273 273 274 274 275 275 275 275 277 282 283 283 284 284 284 285 285 285 286 286 286 287 287 287 286 286 286
277 276 276 276 276 276 276 275 275 274 274 274 273 272 272 271 272 271 271 271 271 271 271 271 274 270 270 270 270 270 269 268 269 269 269 269 270 269 269 270 270 271 271 271 270 270 269 267 268 270 271 271 272 272 273 272 273 273 274 273 274 274 274 275 276 277 280 282 282 282 282 283 284 284 285 285 285 286 286 286 286 286 285 285 284
276 276 276 276 276 275 276 275 275 274 274 274 274 272 271 271 271 271 271 271 271 271 271 271 271 270 270 270 270 270 269 269 269 269 268 268 269 268 268 269 270 270 270 270 270 270 270 269 269 269 270 270 271 272 273 273 272 272 272 274 274 275 275 275 276 277 278 277 277 277 279 281 282 283 284 284 285 285 286 285 285 285 284 283 283
277 276 276 275 276 275 275 275 275 274 273 272 272 271 271 270 270 271 271 271 271 270 270 270 270 270 270 270 270 270 270 269 269 269 268 268 269 269 269 269 269 269 269 269 270 271 271 270 270 270 270 272 273 271 273 274 273 273 272 272 273 275 276 275 275 276 277 277 279 281 281 281 282 281 282 284 284 284 284 284 284 283 283 283 283
276 276 276 276 276 276 275 275 275 274 273 273 272 271 270 270 271 271 271 271 271 271 271 270 270 270 270 270 270 270 270 270 270 269 269 269 270 269 270 269 269 269 269 269 269 269 269 270 270 270 271 271 272 273 274 273 272 273 274 273 272 273 274 275 276 275 276 277 276 277 279 280 280 281 282 282 282 282 282 282 282 282 281 282 283
277 277 277 276 274 275 275 275 273 273 273 273 272 271 271 271 271 271 271 271 271 271 270 270 270 270 270 270 270 270 272 274 276 275 274 275 270 267 268 269 269 268 267 266 267 268 269 270 270 272 272 272 272 272 272 272 272 272 274 274 273 274 274 274 275 277 277 276 276 277 277 277 276 275 275 275 276 278 278 280 280 280 281 283 284
276 276 276 276 275 275 274 274 274 273 273 272 274 277 276 272 271 272 271 271 271 271 271 270 270 270 270 270 271 275 276 277 277 278 278 277 277 274 270 269 268 268 265 264 265 268 270 270 271 272 271 271 272 272 272 273 274 274 273 273 272 273 274 273 273 275 276 276 274 272 273 274 274 273 274 274 275 277 276 276 276 279 281 283 284
275 275 275 275 275 275 274 274 273 272 272 272 277 279 279 278 273 271 271 270 270 271 270 270 270 270 270 270 270 273 274 276 274 277 277 277 277 277 277 277 276 270 265 266 269 272 271 271 273 272 271 270 271 272 272 273 273 273 272 273 272 272 271 269 268 271 275 273 271 270 271 273 273 272 273 274 275 275 276 276 281 282 282 283 283
276 275 275 275 275 274 274 273 273 273 273 275 279 280 281 280 277 272 271 270 270 271 271 270 270 270 270 270 270 270 270 270 269 269 273 276 276 276 276 277 277 278 278 274 273 273 273 272 272 271 271 271 272 272 272 272 272 273 273 272 271 270 269 268 268 267 271 273 271 270 270 273 274 273 273 274 275 276 276 279 281 281 282 283 283
275 274 275 275 274 273 273 273 272 272 272 277 280 281 281 282 281 275 270 270 270 270 271 271 270 270 269 269 269 270 270 274 273 270 269 269 274 275 276 276 277 278 278 279 279 277 276 273 271 271 272 272 271 271 273 273 274 272 271 270 270 270 269 268 268 269 270 272 271 270 269 272 274 274 274 275 276 276 276 277 280 281 282 282 282
275 274 274 274 274 273 273 273 272 272 272 276 280 281 282 282 282 278 271 271 271 270 271 271 270 270 270 269 269 269 269 269 270 270 270 268 268 269 269 270 271 274 277 278 278 278 277 274 273 272 273 273 271 273 274 275 272 270 270 269 269 268 268 267 269 269 271 273 271 270 269 271 273 273 272 274 275 274 273 276 280 281 281 282 282
275 274 274 274 274 273 273 273 272 272 271 276 280 281 282 283 283 281 272 272 272 272 272 271 271 270 270 270 269 269 269 268 269 270 268 268 266 267 267 269 271 273 273 274 275 274 275 275 274 273 273 274 274 275 274 274 272 272 271 270 269 268 268 269 269 270 271 273 272 270 266 269 272 271 271 272 272 272 273 277 279 280 280 281 281
275 275 274 274 273 273 273 272 272 271 271 277 280 281 282 283 283 279 273 273 272 272 271 271 271 271 271 271 270 269 268 268 271 275 274 270 268 266 268 270 272 274 275 276 277 278 276 275 275 274 274 275 277 275 274 273 272 271 271 269 268 267 267 266 265 268 268 271 271 268 267 268 270 268 269 271 272 272 273 273 277 279 280 280 281
275 274 274 274 273 273 272 271 271 271 271 275 280 281 282 283 282 275 273 273 272 271 271 271 271 271 270 270 270 269 268 268 272 275 277 277 272 271 271 272 273 273 272 274 277 277 277 277 277 277 278 277 276 276 275 274 273 272 268 265 264 266 264 263 264 264 265 267 268 269 268 265 268 269 269 271 271 271 271 272 273 277 279 280 280
274 274 274 273 273 272 272 271 271 271 270 272 279 281 282 283 282 274 273 273 272 272 271 271 270 270 270 272 271 269 269 269 273 276 277 276 274 274 274 273 272 271 272 274 273 274 276 276 276 275 274 273 273 272 271 272 272 272 265 263 265 265 263 263 261 263 264 265 267 270 266 266 268 269 267 269 269 270 271 272 273 274 277 278 279
275 274 273 272 272 271 271 271 272 270 269 270 278 281 282 282 281 274 273 272 271 270 270 269 270 269 269 271 273 273 271 271 275 276 277 277 274 274 274 273 272 271 272 273 271 269 270 270 269 268 266 267 266 265 266 270 271 270 268 266 265 263 262 262 263 263 262 263 267 270 265 266 266 267 266 264 264 267 271 271 272 272 273 273 274
Wind_Speed
6 5 5 6 6 7 6 6 5 6 5 6 4 5 5 5 5 5 5 6 6 6 5 6 6 6 6 6 5 6 7 7 7 8 7 7 8 14 20 20 21 21 21 21 22 22 22 21 21 20 20 20 19 19 19 19 19 19 20 19 19 20 20 18 17 16 13 11 13 13 14 14 13 10 10 10 9 9 10 10 9 9 10 11 11
7 5 7 7 7 6 7 6 6 5 5 6 5 5 5 6 5 5 6 6 6 5 5 6 7 6 6 5 6 6 7 7 8 7 7 7 8 10 20 20 21 22 22 22 23 23 23 23 22 21 21 21 21 20 20 20 19 20 19 19 18 19 18 19 19 19 19 19 19 19 20 18 16 14 11 12 12 10 10 10 10 10 10 11 11
7 7 7 7 6 6 6 5 7 5 5 6 4 6 6 6 5 5 6 6 5 4 5 6 6 6 6 6 5 6 7 7 8 8 8 8 8 8 11 20 20 21 22 22 23 24 24 24 24 23 22 21 21 21 21 21 20 19 20 19 19 19 19 20 19 19 19 18 18 19 19 20 18 16 15 14 13 13 13 13 13 12 11 12 12
7 7 7 7 7 7 6 7 6 5 5 6 7 6 6 6 6 5 5 5 5 5 4 6 6 5 6 6 6 7 7 7 8 9 9 9 8 8 8 10 15 19 21 22 23 23 24 25 25 25 23 23 22 21 22 21 20 19 19 20 19 19 19 20 20 19 19 19 19 19 19 19 20 19 17 16 18 17 14 13 13 14 15 14 14
6 8 8 7 7 7 7 6 6 5 6 7 7 6 6 6 6 5 6 5 6 5 3 6 6 5 6 5 6 7 7 8 8 8 9 9 8 8 8 8 9 12 17 20 21 23 23 24 25 25 24 23 23 22 22 21 21 21 21 21 21 20 20 20 20 19 19 19 19 19 19 19 19 19 20 20 16 17 19 17 14 13 14 14 15
6 7 7 8 8 7 7 6 5 5 6 6 7 5 6 7 5 6 6 6 6 5 5 7 5 5 6 5 7 7 7 8 8 8 9 9 8 8 8 8 8 8 9 14 19 21 22 23 24 25 24 24 23 23 22 22 22 21 22 21 22 21 21 21 21 21 20 20 20 19 19 19 19 19 19 20 20 18 16 18 19 16 15 14 13
5 7 8 7 8 7 6 5 5 5 7 6 7 6 7 7 5 6 5 6 5 6 6 6 6 8 6 6 7 8 8 8 8 8 9 8 8 8 8 8 7 7 8 8 11 17 20 22 23 24 24 24 24 23 23 23 22 21 22 21 21 21 21 21 21 20 20 20 21 21 20 20 20 21 21 20 21 21 20 16 16 19 21 21 18
6 7 8 7 7 7 6 5 6 7 7 6 7 8 7 7 6 4 7 6 6 7 6 7 7 8 7 8 8 9 9 8 8 8 7 8 8 8 8 8 7 8 7 8 8 10 18 20 22 23 23 24 24 23 23 23 23 22 21 21 21 21 21 22 21 21 21 20 20 20 21 20 21 22 22 22 23 22 23 22 19 17 17 19 21
6 6 8 8 7 8 6 6 5 7 7 8 8 5 6 7 7 6 5 6 7 6 7 7 8 8 8 9 9 9 9 7 7 6 7 9 8 8 8 7 8 7 8 8 8 8 12 18 19 20 21 22 24 24 24 24 23 22 22 22 21 21 21 22 21 22 21 21 21 21 21 21 21 22 23 23 24 24 24 23 23 22 19 17 17
6 6 8 8 7 7 6 6 6 8 8 8 7 5 5 6 9 7 6 6 7 7 7 7 8 8 9 9 9 9 7 7 7 7 8 8 8 8 7 6 8 8 8 8 8 8 8 12 17 17 18 21 23 24 24 24 24 23 22 23 23 21 21 21 21 21 21 21 21 21 21 21 22 22 23 24 23 24 24 24 24 23 23 22 21
6 6 8 8 8 7 7 5 6 7 7 7 6 6 6 6 8 7 7 8 7 5 6 8 8 8 9 8 8 8 7 7 7 8 7 7 7 6 6 8 7 8 8 8 8 8 9 8 8 9 11 19 21 22 23 24 24 23 23 23 23 23 22 22 20 20 19 20 21 21 21 21 22 23 23 23 23 23 23 22 23 23 23 23 22
7 7 8 8 8 7 8 6 6 7 8 8 6 6 6 8 8 6 8 9 8 6 5 7 8 9 8 8 7 7 9 8 9 8 7 7 6 7 8 7 8 8 8 8 8 8 8 8 8 8 8 12 19 19 21 22 23 23 23 23 23 23 23 22 21 20 19 20 20 21 23 23 24 25 24 24 24 23 23 23 23 22 23 24 23
6 7 8 8 8 7 8 7 6 7 8 7 4 5 5 6 6 7 8 10 8 6 4 2 9 6 6 6 7 5 6 9 9 8 7 6 6 8 7 8 8 8 8 7 8 8 8 9 8 8 9 8 10 15 18 20 22 23 23 24 24 23 24 23 23 22 22 22 21 22 23 23 23 24 25 25 24 25 24 23 24 23 23 23 24
6 6 7 8 8 8 8 7 7 7 7 6 6 6 6 6 4 9 6 9 6 5 5 1 4 5 6 2 2 2 4 8 9 7 6 6 6 8 7 8 8 7 7 8 8 8 8 8 8 9 9 9 9 9 9 11 13 22 23 25 25 24 24 24 24 24 23 23 23 24 24 24 24 25 25 25 25 24 24 25 24 24 24 24 24
6 5 7 7 8 8 7 6 6 6 8 8 7 8 6 5 5 7 7 4 6 6 9 4 4 2 1 4 1 1 1 5 4 5 6 6 6 8 8 8 8 6 6 7 8 8 8 8 9 9 9 9 9 9 8 9 13 21 23 24 25 24 24 24 23 24 23 23 24 24 24 25 25 26 26 26 25 25 24 24 24 24 24 24 24
5 6 7 7 7 8 6 7 7 6 7 8 7 7 6 5 5 4 5 7 5 7 7 7 4 2 1 1 1 2 1 2 3 3 2 5 7 6 6 7 7 7 6 8 8 8 8 7 9 9 9 9 8 8 8 9 14 17 19 19 23 24 24 24 24 24 25 25 25 25 25 26 26 26 26 25 25 25 25 24 24 24 24 25 25
5 6 7 8 6 7 8 7 7 6 6 8 8 6 5 4 4 5 5 8 5 4 8 7 9 4 5 3 2 3 0 2 4 1 3 3 5 6 7 9 9 7 7 7 7 7 7 8 8 8 8 9 9 9 9 10 9 10 12 17 22 23 24 24 25 25 26 26 27 27 27 27 27 27 26 26 26 26 26 26 25 24 24 24 24
6 7 7 6 8 7 7 8 7 7 7 7 6 6 6 6 4 5 7 5 9 7 5 6 8 10 8 4 1 3 2 1 2 1 5 1 3 6 6 7 6 7 6 7 8 9 7 7 7 7 7 7 8 8 8 9 10 10 10 15 27 25 24 25 25 25 26 26 27 27 27 27 27 26 26 27 27 27 27 27 26 25 25 24 24
6 6 6 6 7 7 8 8 7 6 5 7 8 7 5 4 3 6 5 4 6 8 7 4 6 8 7 8 10 6 3 3 0 1 2 3 4 4 4 8 5 5 5 5 5 7 7 6 7 6 7 6 8 8 8 9 12 14 22 26 26 26 25 25 24 24 25 26 26 27 27 27 27 27 27 27 27 27 26 26 26 25 25 25 24
7 6 6 6 7 8 7 7 7 6 6 7 7 5 6 5 6 5 6 6 6 8 5 2 6 2 3 6 6 6 6 7 2 1 1 1 5 4 2 8 6 4 3 4 5 6 5 6 5 6 5 6 7 8 8 9 9 10 11 23 23 24 25 25 25 25 25 26 27 26 27 27 27 27 28 27 27 26 26 26 26 25 25 25 25
5 6 5 6 6 7 7 7 7 6 7 7 5 5 6 6 6 7 8 7 6 5 8 6 5 3 4 4 5 5 5 4 3 3 2 1 4 2 5 4 4 3 4 1 2 4 4 4 3 4 5 6 7 7 8 8 8 8 12 20 22 23 24 24 24 25 25 25 25 26 26 27 27 27 27 27 27 26 26 26 25 25 25 25 25
5 5 6 6 6 6 7 7 7 6 6 6 6 6 5 6 6 6 6 8 5 7 7 6 6 4 4 3 4 2 4 4 5 4 2 1 1 4 3 5 7 7 5 7 8 4 3 4 4 4 5 6 6 7 7 8 9 8 12 21 22 23 23 23 23 23 23 24 25 26 26 27 27 28 27 27 27 27 26 26 26 26 26 25 25
5 5 5 5 6 5 6 6 6 6 6 6 6 6 6 7 6 6 6 8 7 8 7 6 6 6 5 6 6 5 4 2 2 2 2 1 2 3 3 2 3 7 4 4 6 5 4 3 3 5 5 6 6 7 8 8 9 13 19 19 22 23 24 24 23 23 23 24 24 25 25 26 27 27 27 27 27 27 26 26 26 26 26 26 26
5 5 5 4 5 6 5 6 6 6 6 5 5 6 6 5 6 6 6 6 6 8 7 7 6 6 5 5 5 5 5 5 2 3 4 1 1 3 4 4 3 4 6 4 3 2 4 3 3 5 5 6 6 7 8 8 10 19 15 17 21 22 23 24 24 24 24 24 24 25 25 25 26 26 27 27 27 26 27 27 26 26 26 26 25
5 6 4 4 5 7 6 6 6 5 5 6 5 5 5 5 6 6 6 7 6 7 7 5 5 6 6 3 5 5 5 2 4 4 2 3 3 1 2 1 3 5 3 2 2 5 0 2 5 4 6 6 6 7 7 7 8 15 19 12 22 21 23 23 23 24 24 24 25 25 25 25 25 25 25 26 26 27 27 27 28 27 27 27 27
7 6 6 5 4 5 5 5 4 5 5 5 5 4 5 6 5 7 7 6 6 7 7 5 6 4 4 6 5 5 3 3 3 4 3 3 1 1 2 3 2 5 3 1 2 4 3 2 3 5 6 7 7 7 7 8 7 15 19 13 15 21 22 23 23 23 24 24 24 24 24 24 25 24 25 25 26 27 27 28 27 27 27 27 27
7 6 5 5 5 5 4 5 5 5 5 5 5 5 5 6 5 6 6 6 6 6 5 5 6 5 4 5 5 5 5 3 5 3 2 2 3 1 2 5 6 2 3 2 2 1 2 4 1 4 5 6 8 7 8 8 10 17 17 9 9 19 21 23 23 24 24 24 24 24 24 24 24 24 25 25 25 25 26 27 27 27 27 27 27
6 6 5 5 6 6 4 5 4 5 5 5 5 5 5 6 6 6 7 3 6 6 5 6 5 5 4 3 5 4 3 4 4 4 4 3 4 3 4 2 1 5 4 4 2 2 1 3 2 3 5 8 7 7 9 10 8 18 14 8 9 10 19 23 25 24 24 24 24 24 24 24 23 24 24 24 25 25 25 26 26 26 26 26 26
7 5 6 4 5 6 6 5 5 4 5 4 5 5 5 6 6 6 6 4 5 5 4 5 4 4 4 4 5 5 3 3 3 4 3 3 3 3 2 4 2 1 3 5 3 1 3 3 2 3 6 7 6 6 8 8 11 15 9 9 9 9 16 23 25 25 25 25 24 25 24 24 24 24 24 24 24 25 25 25 25 25 26 26 27
7 6 6 6 5 5 6 5 4 4 5 5 5 5 6 6 6 6 4 5 5 3 3 4 4 4 4 3 3 4 2 3 4 3 3 3 3 3 3 2 2 4 1 2 6 1 3 1 2 4 5 6 7 8 6 7 13 15 10 10 9 9 20 22 23 24 25 25 25 25 25 25 24 24 24 24 24 25 25 25 25 25 26 27 27
7 7 7 6 6 5 5 5 5 5 4 5 6 6 6 7 6 6 4 4 5 4 3 4 3 4 4 4 3 3 3 3 3 3 2 3 3 2 2 3 3 3 2 1 3 5 3 2 2 2 3 5 7 8 6 7 9 13 10 10 9 16 21 15 20 22 23 25 25 25 25 25 25 25 25 25 24 25 25 25 25 26 26 27 26
7 7 7 7 7 7 5 5 5 4 5 5 6 7 7 7 6 6 4 4 5 4 3 3 3 4 4 4 3 3 2 3 3 3 3 2 1 3 3 3 2 2 2 2 4 11 1 4 5 3 4 7 7 9 9 7 8 13 8 8 11 17 10 8 14 19 21 23 24 25 25 25 25 25 25 25 26 25 25 25 25 26 27 27 27
8 8 7 7 7 6 6 6 6 6 6 6 5 7 7 7 6 5 4 4 5 3 4 3 3 3 3 3 3 2 3 3 3 3 2 2 2 3 3 4 3 1 1 1 4 10 8 2 3 5 6 6 7 5 9 9 10 9 8 7 9 9 10 9 9 13 19 22 23 24 25 25 26 26 25 25 25 26 25 25 26 26 27 27 27
8 8 8 7 6 6 6 6 6 5 5 6 6 6 7 7 5 4 5 5 4 3 3 3 3 3 3 4 3 3 3 3 3 2 2 2 3 4 2 4 2 1 1 1 4 4 12 4 6 3 4 5 9 5 7 12 11 10 10 9 8 8 9 9 9 9 17 20 23 24 24 26 26 26 26 25 26 26 25 25 26 26 27 28 28
6 7 8 7 7 6 6 6 7 6 6 6 5 6 6 7 6 5 4 4 4 4 4 4 3 3 3 3 3 3 2 3 2 2 2 3 3 4 2 1 1 1 1 1 1 4 6 9 3 7 7 7 6 10 9 8 9 9 11 10 9 9 8 9 10 9 15 21 24 25 26 26 26 26 26 26 26 24 25 27 27 28 28 27 27
8 6 6 7 6 7 7 7 7 6 6 6 6 6 7 6 6 5 4 4 4 4 4 4 3 3 3 3 2 3 2 3 2 2 2 3 3 3 2 1 1 2 2 2 2 3 3 8 5 7 8 8 8 6 8 9 9 9 8 10 9 9 10 9 9 9 13 22 24 24 25 26 26 26 26 26 25 25 26 27 28 29 28 27 26
7 7 6 5 7 7 8 9 9 8 8 7 7 6 5 5 5 5 4 4 4 4 4 3 4 3 3 3 3 3 3 3 2 2 3 3 3 3 2 2 3 3 3 3 3 3 5 7 9 5 6 7 7 8 8 11 12 9 8 9 10 10 10 8 7 9 15 22 22 23 23 24 25 25 25 25 25 26 27 29 29 28 26 26 25
8 7 8 7 7 8 8 9 9 8 8 7 7 7 6 5 5 4 4 4 4 4 3 3 3 3 3 3 4 4 4 4 3 3 3 3 3 3 3 3 4 3 3 3 3 3 4 6 7 10 5 7 11 9 6 9 11 13 13 10 7 8 9 10 9 9 9 9 9 10 13 16 19 24 24 23 25 27 29 29 27 26 25 24 24
9 9 8 8 7 7 7 8 8 8 7 6 6 6 6 5 5 5 4 4 4 3 3 3 3 3 3 3 4 4 4 4 4 4 4 3 4 4 4 4 4 4 4 4 3 4 5 7 7 6 9 8 7 11 10 8 9 8 11 14 14 8 9 12 13 10 9 11 14 20 18 18 20 17 19 24 27 29 29 26 25 25 23 24 24
10 10 10 10 8 6 7 6 6 7 7 7 6 6 6 6 6 5 5 5 5 4 3 3 3 3 3 3 3 4 4 4 4 4 4 4 3 4 5 4 4 4 4 4 4 4 5 5 6 8 7 8 7 7 8 7 9 9 7 11 15 16 15 13 13 15 13 10 12 10 11 12 12 16 21 23 25 27 25 23 23 24 24 23 24
8 9 8 8 8 8 7 6 7 6 7 7 6 7 7 7 6 6 6 6 5 5 4 3 3 3 3 3 3 3 4 6 9 7 7 7 5 4 4 4 4 4 4 4 4 3 4 5 7 7 9 8 9 11 12 10 11 13 13 12 12 13 13 14 13 11 10 12 11 8 9 11 13 13 12 11 11 17 16 20 18 21 22 23 25
9 8 8 8 9 9 9 7 7 6 6 5 7 12 9 7 7 6 6 6 5 5 5 4 4 4 5 4 4 7 8 8 8 8 7 7 7 6 6 5 4 4 5 4 4 5 5 6 6 6 7 8 9 10 12 12 12 12 13 13 14 14 13 14 13 8 10 13 11 13 11 9 12 12 10 11 10 11 9 9 10 15 21 24 24
9 9 8 10 9 8 9 9 9 7 6 5 12 15 15 14 8 7 7 6 5 5 5 6 6 6 5 4 4 5 6 6 4 7 8 8 8 8 8 8 7 7 5 5 5 5 6 6 5 4 8 12 11 10 11 12 12 12 12 13 13 13 13 14 16 14 5 10 13 14 14 7 10 12 11 10 10 9 9 10 20 23 25 26 26
8 7 9 10 9 8 7 7 8 7 7 9 15 15 15 16 12 8 6 6 6 6 6 6 6 6 6 5 5 5 4 4 4 3 5 8 9 9 9 9 10 11 9 7 6 5 5 5 5 5 8 10 11 10 11 11 12 13 12 13 13 13 14 13 13 14 12 13 15 14 15 9 9 11 11 9 8 8 10 17 26 28 27 25 25
7 8 10 8 8 7 7 9 8 7 7 12 16 17 16 16 16 11 6 6 6 6 6 7 7 7 6 6 6 5 5 9 6 4 5 4 7 10 11 11 11 12 11 13 12 7 5 5 6 7 7 9 11 10 10 12 13 13 13 12 12 12 12 13 13 14 15 13 14 13 14 12 11 11 11 10 9 8 11 17 27 25 24 25 25
8 7 7 8 7 9 9 9 9 8 8 12 17 17 17 17 17 13 6 7 6 6 7 7 7 8 7 7 7 6 5 4 4 5 5 4 4 4 5 5 5 9 12 14 13 13 10 7 7 8 8 8 10 11 11 11 12 11 11 12 12 13 12 13 15 15 14 12 12 13 13 12 12 14 14 11 9 13 13 18 23 24 26 26 24
10 11 10 10 10 9 8 8 8 8 8 13 17 18 17 18 18 14 7 6 6 6 7 7 8 8 7 7 7 7 5 5 5 6 5 5 4 5 5 7 7 7 8 8 6 5 4 5 8 9 10 9 10 10 10 10 11 10 9 11 12 12 13 14 13 11 11 9 11 11 12 13 12 13 12 11 12 13 12 14 21 25 26 25 24
6 6 6 7 9 9 8 8 8 9 8 15 17 18 18 18 19 9 8 8 7 7 7 8 8 7 7 7 6 6 5 6 8 13 11 7 5 6 8 8 8 8 7 7 10 9 8 7 7 8 8 9 12 12 12 10 9 8 8 6 6 7 9 10 10 9 9 8 10 11 10 11 11 13 13 12 12 13 13 12 19 24 23 23 25
9 10 10 9 8 8 9 9 10 10 8 14 18 18 18 19 15 7 8 7 7 8 8 8 8 7 7 7 7 6 6 7 10 14 15 13 7 9 9 9 8 6 6 6 10 12 13 14 15 15 14 13 15 17 16 15 10 9 5 6 5 6 8 10 11 9 9 10 9 8 9 12 11 12 15 12 13 15 15 13 11 16 22 25 24
11 12 9 8 7 8 9 10 11 11 10 12 18 18 19 20 15 9 8 8 8 8 8 8 7 7 7 12 9 7 7 8 12 16 16 12 8 9 9 8 8 7 6 4 2 4 12 14 11 9 9 11 12 12 12 12 12 9 3 6 6 6 6 6 10 11 11 9 7 8 10 10 13 13 14 12 13 10 11 11 12 14 21 18 23
9 6 6 8 7 7 8 9 7 10 9 10 17 19 20 20 15 8 8 8 8 9 8 8 7 7 7 10 16 13 10 10 16 17 17 13 8 8 9 8 8 7 5 3 3 4 4 1 2 4 5 6 5 5 7 12 11 8 5 5 4 4 6 7 8 10 11 5 5 12 12 11 13 12 12 14 13 8 8 10 12 10 8 10 12
Wind_Direction
81 70 75 70 62 62 63 60 58 57 60 58 59 63 61 61 55 57 57 58 52 40 43 41 43 41 42 40 41 45 47 50 50 52 50 50 45 41 42 41 45 44 42 41 40 38 35 32 28 26 25 23 21 21 20 17 14 12 8 6 4 3 5 8 3 360 357 345 336 335 343 334 305 297 304 309 315 317 315 315 317 318 320 318 316
93 85 88 83 80 81 82 78 76 65 69 72 63 72 69 70 63 61 62 60 58 43 52 50 46 42 40 43 38 49 56 59 57 55 54 51 48 43 42 42 40 41 42 41 39 36 34 31 28 26 23 22 20 19 18 18 15 13 10 8 5 4 5 5 3 1 358 354 352 352 354 359 343 306 302 307 309 303 302 302 303 306 310 313 313
102 100 90 90 84 82 76 81 75 64 74 83 69 77 76 73 67 67 67 69 69 58 56 60 52 44 39 43 32 54 63 65 65 60 58 51 50 45 38 40 38 38 39 39 39 38 35 31 28 24 22 20 18 17 16 15 13 10 8 10 11 10 9 7 4 1 358 356 355 354 353 352 352 342 317 307 302 301 302 303 302 302 303 311 314
97 97 98 91 83 81 79 78 80 73 74 85 78 68 73 72 68 68 69 70 75 64 54 66 55 47 43 41 56 72 71 71 70 66 62 59 54 50 44 37 34 37 37 35 35 33 32 31 28 24 21 19 18 16 16 15 12 8 8 7 6 5 5 5 3 2 0 359 357 355 353 350 346 342 338 330 314 299 291 293 296 301 307 311 313
92 96 93 91 91 86 78 76 81 86 80 78 77 68 64 64 58 60 58 63 58 52 65 72 63 48 51 48 72 72 72 75 73 68 63 59 53 50 48 41 36 30 32 35 32 30 28 26 25 22 20 19 17 16 16 15 12 11 9 8 6 3 2 2 359 359 359 1 360 358 354 351 346 341 338 336 331 318 302 291 286 291 297 298 304
99 94 93 94 89 84 89 82 78 84 79 72 71 64 66 60 48 56 47 52 55 33 49 55 46 51 54 57 69 68 69 71 71 69 67 59 52 50 46 43 37 36 30 29 29 27 25 24 23 20 18 17 16 15 15 15 13 11 11 11 10 6 4 3 0 357 356 356 356 356 355 353 350 345 341 336 336 335 325 309 294 285 285 282 292
83 99 91 92 93 88 72 70 69 71 75 66 76 67 66 59 39 66 59 51 54 44 49 56 49 55 48 50 61 69 67 68 63 61 60 58 52 46 45 42 36 37 32 29 22 21 22 21 20 19 16 16 16 14 13 14 11 10 11 11 10 9 8 4 0 357 356 356 354 352 351 350 350 349 345 343 341 338 335 324 311 301 303 301 294
79 89 95 88 90 86 77 76 79 79 76 80 74 66 67 65 43 51 77 49 52 48 40 58 61 66 58 61 65 68 68 63 60 59 54 56 49 44 41 38 36 34 32 30 25 17 16 18 17 15 13 13 15 14 12 12 9 7 8 9 9 8 11 9 6 4 0 357 354 352 351 352 353 352 350 348 344 342 338 336 330 317 307 301 300
76 80 92 89 84 83 77 79 83 86 79 68 67 63 70 79 56 44 64 84 64 61 52 63 76 72 70 68 63 68 65 63 60 61 57 55 46 41 38 34 33 32 31 26 23 18 12 14 13 11 9 9 14 13 13 12 8 6 7 8 6 7 9 8 8 7 6 3 1 358 354 351 349 349 349 348 347 345 343 340 335 331 322 310 303
78 84 87 84 84 86 82 76 80 78 77 72 69 60 62 68 77 50 51 68 61 62 72 80 82 79 72 72 68 68 65 64 62 56 54 50 43 38 31 32 34 30 27 25 20 17 16 9 7 8 5 6 12 12 13 12 7 6 7 8 7 4 5 4 5 6 6 6 6 4 2 0 358 355 350 347 344 342 340 339 338 335 333 329 322
76 79 89 88 85 81 80 68 75 82 82 76 68 62 67 61 78 75 61 61 72 64 84 97 89 84 77 68 72 72 69 65 61 58 52 50 46 34 36 31 31 28 26 22 16 17 14 12 9 6 359 1 7 9 11 11 7 6 7 6 4 4 0 357 358 360 1 1 360 357 356 355 354 353 351 348 343 339 337 335 334 333 334 332 326
75 79 86 88 88 82 81 69 70 80 79 74 63 57 64 70 56 66 69 60 47 45 50 92 87 84 85 68 64 74 71 68 61 55 50 43 36 35 34 24 31 22 23 16 17 13 13 12 10 3 3 357 2 4 5 7 5 6 7 4 1 1 359 356 354 355 353 353 355 355 353 351 350 348 347 345 342 339 336 334 330 329 328 328 327
72 83 89 90 86 88 84 72 73 79 82 82 82 73 60 74 85 60 68 69 39 13 10 47 107 79 68 79 65 43 73 75 64 53 46 37 37 40 27 29 23 21 11 12 14 11 12 11 6 4 3 360 359 2 4 4 4 7 6 4 1 2 0 359 356 354 353 349 347 348 348 346 347 347 346 343 341 339 336 335 332 329 325 324 324
74 81 85 92 94 86 82 87 88 88 87 86 73 65 57 48 61 71 41 76 59 14 346 73 33 129 127 81 32 13 61 63 63 49 46 39 41 43 30 29 22 13 7 13 11 10 12 8 5 6 3 4 1 4 5 5 3 8 9 7 2 0 358 357 356 354 352 348 346 344 342 341 342 344 343 341 339 337 335 332 331 330 328 325 321
74 81 90 87 91 93 89 88 78 92 88 70 64 59 52 57 48 102 91 58 86 34 25 32 132 123 116 85 17 6 301 15 20 44 40 40 39 39 32 25 14 11 6 11 11 5 6 4 6 7 6 7 7 7 10 7 8 10 8 4 2 359 355 353 352 351 348 346 344 342 340 339 339 339 340 338 336 335 333 331 330 328 326 325 323
77 86 87 84 90 93 95 85 77 69 89 92 76 70 57 52 61 56 97 75 42 40 33 34 82 113 37 98 170 120 359 333 2 298 26 60 43 38 31 23 8 6 8 17 6 3 0 3 8 6 7 8 11 13 14 13 10 9 3 355 359 359 355 351 349 347 344 343 341 339 337 337 337 337 337 336 334 333 332 330 328 326 324 323 322
80 80 87 89 86 92 90 86 85 76 86 87 80 75 67 64 63 74 59 114 81 80 34 37 46 33 138 102 38 37 177 262 3 291 353 26 14 31 27 22 4 2 7 2 4 5 359 2 4 6 8 11 12 15 16 11 12 4 359 354 356 356 354 349 346 343 341 340 339 337 336 336 336 336 336 335 334 333 331 329 326 324 322 322 321
76 81 84 91 88 88 91 91 85 79 76 88 93 82 68 68 46 86 79 58 115 92 73 30 49 43 49 75 138 164 179 253 87 307 339 83 359 25 23 20 360 353 356 3 6 354 359 355 1 4 7 13 14 16 15 11 9 4 1 353 354 351 349 347 345 342 340 339 338 336 336 335 335 335 334 333 331 329 327 325 323 322 321 319 319
74 79 84 87 90 84 85 86 88 88 89 89 81 79 74 67 58 72 73 96 94 96 97 98 48 40 40 55 61 56 95 118 177 95 357 321 14 17 351 357 357 339 347 1 356 356 343 354 356 3 6 17 18 16 16 11 8 7 1 355 351 349 347 348 347 345 343 342 339 337 335 333 332 332 330 329 327 326 323 322 322 320 319 317 317
83 76 79 84 89 86 89 91 90 83 85 80 90 93 92 72 71 85 82 68 87 110 100 47 105 64 34 65 67 59 58 61 80 146 146 271 308 331 9 339 336 316 332 343 357 346 337 342 352 1 9 18 20 19 15 11 10 3 356 354 353 351 350 349 347 344 342 340 337 335 333 332 332 331 330 329 327 326 325 324 322 321 319 318 318
69 81 76 81 82 93 91 91 90 87 87 87 81 80 84 90 80 72 75 68 69 93 93 80 82 128 114 65 70 72 66 69 50 65 120 68 296 348 315 317 307 303 330 301 331 333 334 336 345 9 24 20 22 21 18 14 6 357 352 355 353 350 347 344 340 337 336 335 334 334 333 332 332 331 330 328 326 326 324 322 321 320 320 318 317
71 73 81 75 85 86 90 93 93 93 90 97 97 87 84 83 83 94 94 89 75 80 96 99 88 81 81 130 92 52 46 30 30 34 25 101 168 288 319 338 342 311 325 348 348 342 347 343 356 28 32 31 23 21 19 13 3 350 352 354 350 346 342 340 337 336 334 332 334 333 332 332 331 330 329 328 327 325 322 322 321 320 318 317 315
92 76 77 88 86 87 94 92 92 94 98 98 102 105 99 96 96 91 85 96 92 93 86 77 81 73 65 76 91 104 142 127 142 83 120 120 12 303 299 280 266 304 289 333 323 318 335 344 30 33 40 26 25 19 17 9 358 350 351 352 348 344 342 340 339 337 334 334 333 331 331 330 330 329 328 327 326 323 322 321 321 319 317 315 315
96 97 91 94 102 94 94 96 96 103 100 108 104 104 104 103 97 96 95 90 93 90 92 92 87 86 77 79 87 95 84 112 156 135 121 167 149 261 283 307 307 238 285 313 285 297 336 330 21 65 40 36 23 21 9 2 351 348 349 350 346 343 341 338 337 335 333 333 333 331 330 329 328 328 327 325 324 324 323 322 320 318 316 317 316
128 120 125 122 119 111 108 111 108 106 112 104 107 106 110 104 103 98 97 93 95 97 96 99 105 104 111 93 99 83 87 93 108 121 118 133 130 90 274 211 241 299 288 358 315 326 68 323 53 49 51 26 22 21 7 358 351 342 346 346 344 340 338 336 334 333 333 333 333 331 330 330 328 327 326 326 325 325 324 323 322 321 320 319 318
149 145 150 130 107 112 114 109 111 112 111 112 112 113 111 107 105 100 95 99 93 92 98 100 89 101 108 97 85 91 93 96 99 96 120 100 90 102 296 301 216 270 282 351 300 25 319 321 45 66 39 23 15 8 2 352 345 343 346 345 338 337 336 334 333 333 334 333 331 330 330 330 327 326 325 326 326 324 323 322 321 320 319 318 317
149 145 139 128 124 120 122 119 120 118 119 115 113 107 108 102 97 101 92 93 94 96 96 98 95 89 84 101 102 86 92 92 96 93 116 131 144 165 97 6 341 290 309 309 316 278 232 286 38 68 44 26 9 1 354 351 340 340 345 343 333 333 334 332 333 335 334 332 329 330 330 328 326 325 326 326 324 325 324 323 322 322 322 320 318
138 135 141 137 137 129 122 122 125 122 119 123 121 113 113 109 101 93 92 87 100 97 102 94 94 96 101 101 90 96 100 96 93 100 88 103 100 104 100 97 79 325 315 312 340 314 10 13 334 93 40 23 4 352 345 344 337 338 343 339 334 329 329 330 333 334 333 331 330 330 328 326 325 325 325 324 325 325 324 323 322 322 320 319 318
141 141 141 138 135 135 132 133 130 127 122 121 121 118 114 107 106 100 97 96 100 109 106 103 111 103 90 98 114 114 107 101 88 90 93 79 84 99 114 138 140 144 320 320 305 81 308 50 22 289 33 11 355 348 340 342 336 336 336 334 328 325 323 331 332 331 331 330 331 329 326 325 324 323 322 323 323 323 323 322 322 321 321 320 318
143 144 142 140 137 136 133 135 137 130 130 129 126 124 114 100 100 94 106 107 103 94 107 117 118 107 107 91 103 104 116 96 107 100 88 97 89 93 103 110 139 142 211 313 293 243 262 331 72 319 357 354 347 337 340 331 331 334 330 326 325 317 325 330 328 327 327 328 328 326 325 324 323 322 321 321 321 321 321 321 321 320 320 320 319
144 146 145 143 140 137 138 141 141 141 140 138 136 126 116 109 101 106 107 112 112 111 122 120 130 111 108 102 106 114 119 111 99 84 74 79 73 87 88 89 74 124 145 194 304 285 134 273 303 328 324 348 339 325 328 322 325 330 325 319 317 319 324 320 321 322 324 324 324 324 324 323 322 321 321 319 319 320 319 318 318 319 320 320 317
152 148 147 149 148 145 150 149 151 155 151 147 138 127 115 109 117 116 126 120 118 123 110 106 118 117 119 111 113 126 137 108 89 75 77 68 93 81 85 83 72 95 121 177 234 269 287 305 305 312 359 339 331 324 323 320 318 323 314 311 311 316 315 308 309 314 316 317 320 322 322 321 321 321 319 318 318 318 317 315 316 318 320 318 317
154 155 155 154 152 151 154 163 166 170 159 146 137 125 116 118 116 124 127 124 128 131 119 105 115 123 129 120 119 135 136 105 109 100 83 91 98 89 99 93 76 43 105 231 255 282 293 176 335 329 335 334 322 327 317 318 317 316 312 304 305 307 308 305 302 301 305 311 318 318 318 320 320 320 318 317 316 315 315 315 315 317 317 316 316
160 160 159 154 153 157 162 169 174 176 164 137 131 122 123 122 128 130 135 132 131 143 130 136 144 142 134 121 117 122 129 123 129 119 143 114 114 95 86 102 97 99 301 162 265 253 292 317 321 321 316 334 313 323 321 319 314 310 309 310 304 298 302 302 301 296 298 306 314 315 317 318 318 317 317 314 314 315 314 314 316 316 315 316 315
163 164 161 156 157 162 166 171 177 179 158 134 131 126 128 135 140 141 143 144 149 155 154 163 159 147 122 129 143 133 137 116 149 159 145 125 130 118 122 122 130 237 217 239 229 279 288 302 338 324 328 322 314 314 313 300 295 298 303 306 307 304 295 295 295 293 297 302 310 314 316 316 314 314 313 313 313 311 313 316 316 316 316 315 314
162 161 153 157 158 169 173 173 178 171 146 137 133 134 139 142 141 145 148 151 159 164 162 165 161 151 146 133 160 153 152 141 182 157 145 141 133 135 139 185 167 207 222 204 256 255 295 299 318 326 314 316 310 298 296 295 293 301 300 298 297 295 294 291 288 291 291 303 311 311 313 312 312 311 312 312 310 311 313 315 317 316 315 314 314
165 154 158 160 171 179 182 176 177 168 155 148 141 138 138 139 141 144 154 158 162 164 167 169 167 152 161 167 188 170 167 155 197 169 165 149 157 150 166 203 198 215 209 218 224 245 270 282 296 292 294 293 289 294 303 310 311 304 298 299 303 300 297 286 282 287 292 303 304 304 304 307 309 310 310 309 310 311 313 315 316 315 314 314 315
161 167 165 174 182 189 189 185 184 152 140 145 145 145 143 142 141 149 156 161 163 159 160 165 161 173 172 187 193 188 177 172 207 196 173 173 172 180 195 215 210 207 210 226 224 231 264 274 286 303 296 303 308 301 301 304 309 312 312 305 297 303 309 310 305 303 304 298 303 298 298 299 300 307 309 309 308 311 313 314 313 313 314 314 313
167 169 178 181 191 192 189 181 173 152 146 145 144 145 146 149 153 156 163 164 166 163 163 163 172 180 187 193 202 196 195 193 190 192 185 190 179 208 210 212 214 196 220 217 215 242 270 284 282 278 295 296 291 298 313 302 291 293 304 315 317 318 312 315 313 307 303 300 299 303 304 307 310 310 309 309 309 309 309 310 311 312 312 312 311
177 180 181 186 184 186 188 186 166 150 147 150 152 153 154 157 159 164 167 171 170 170 168 176 184 194 195 203 201 207 199 207 193 205 179 189 199 207 224 198 209 204 219 230 243 252 262 273 282 292 280 282 291 272 291 301 306 308 317 318 314 320 321 318 314 312 311 301 304 302 307 312 312 311 308 305 303 303 307 309 308 309 311 309 307
182 183 180 177 176 182 186 178 150 143 156 164 164 169 165 166 165 170 175 174 173 176 187 197 207 202 210 204 212 215 215 219 218 205 193 195 180 206 229 189 209 213 226 234 233 246 259 270 281 284 292 295 302 316 319 324 323 320 321 320 310 313 315 313 310 307 303 312 313 321 325 327 314 307 305 300 296 299 300 301 305 304 305 308 311
182 179 180 184 187 181 175 171 163 163 173 165 177 178 175 167 169 169 173 178 178 181 189 208 221 221 218 220 222 226 231 229 227 220 222 241 238 197 193 187 209 213 221 221 239 240 252 272 280 289 295 305 315 314 312 312 316 317 317 318 313 317 316 311 304 304 324 316 325 314 308 315 305 302 299 294 293 297 295 299 295 305 312 315 314
183 180 180 187 191 186 179 173 172 176 176 177 186 191 188 180 167 174 177 182 179 185 197 202 216 219 229 228 225 238 235 233 226 227 236 241 243 247 248 241 217 194 201 232 236 241 253 265 275 292 307 305 305 310 308 314 316 318 315 315 316 320 322 321 315 313 335 332 315 308 303 304 295 294 294 290 292 291 299 296 309 319 318 315 314
186 174 190 195 188 184 177 177 181 183 183 187 194 197 193 189 177 176 179 178 183 193 201 209 215 215 221 228 231 219 220 213 207 225 242 243 244 251 254 253 254 255 249 227 241 254 269 288 295 294 298 295 303 310 311 315 315 314 315 318 316 318 315 312 306 304 318 324 311 306 301 306 289 283 284 287 292 295 302 316 321 317 313 316 318
172 187 195 186 192 184 184 182 189 190 191 195 199 200 198 193 187 177 182 180 185 197 204 211 214 217 215 217 226 224 213 221 215 200 200 225 252 259 257 256 257 257 258 265 270 274 278 284 288 286 282 299 304 304 307 308 313 313 319 316 316 313 308 301 300 304 311 316 306 300 297 303 303 300 300 308 309 317 321 321 315 313 317 318 318
185 188 191 196 192 194 193 192 191 193 195 201 201 201 200 196 193 180 183 184 190 198 208 212 216 216 214 212 214 224 216 210 210 210 210 211 223 251 270 274 263 265 264 265 267 270 280 283 281 282 294 297 293 299 304 317 320 316 316 313 314 308 306 300 303 301 301 306 303 310 306 317 321 312 308 316 333 320 310 310 315 319 317 317 317
185 191 193 195 201 197 198 192 192 198 204 201 203 203 201 199 199 191 177 186 190 204 213 218 222 220 218 216 214 219 216 215 212 207 208 216 213 234 249 253 251 243 244 244 245 246 249 264 276 284 286 287 287 299 317 321 313 310 308 305 312 306 298 297 291 287 294 304 318 325 306 307 310 313 314 319 317 303 297 308 316 316 315 314 315
198 197 209 206 202 201 200 193 193 207 207 204 206 205 203 202 202 191 175 189 195 205 215 220 222 224 219 216 217 222 220 226 226 231 224 204 209 227 239 245 244 240 230 218 238 259 270 277 274 272 276 279 297 311 313 314 316 309 308 316 301 289 299 301 302 316 311 328 338 318 307 313 323 311 308 308 304 306 311 309 311 313 313 314 315
195 203 207 204 202 200 200 200 200 209 206 207 207 205 204 203 200 188 182 189 200 206 219 217 222 223 220 213 217 218 226 234 235 239 237 227 212 222 233 240 231 221 233 230 258 270 279 282 281 281 286 300 312 311 310 313 311 316 326 311 297 314 313 312 311 319 315 328 320 321 327 306 309 312 311 315 318 311 306 304 303 309 316 315 314
203 208 203 201 206 203 204 209 206 203 211 208 208 206 206 206 200 188 189 192 205 212 218 220 216 225 222 221 214 219 227 235 238 239 235 231 234 235 237 235 228 234 242 221 190 246 273 278 280 295 312 316 315 314 311 308 312 323 311 291 306 325 306 306 306 314 310 313 310 340 314 305 317 321 316 316 311 301 303 302 308 311 311 309 311
215 203 196 206 210 211 213 215 212 213 219 212 211 209 207 208 205 183 188 194 207 219 213 221 221 219 231 230 230 229 228 233 237 238 235 231 232 234 239 235 242 248 245 205 228 251 242 187 300 325 318 322 316 296 287 300 310 315 304 296 304 296 293 296 300 309 312 305 333 334 318 318 324 322 328 319 312 300 292 301 301 294 302 305 302